TimeHST,TemperatureF,Dew PointF,Humidity,Sea Level PressureIn,VisibilityMPH,Wind Direction,Wind SpeedMPH,Gust SpeedMPH,PrecipitationIn,Events,Conditions,WindDirDegrees,DateUTC
12:19 AM,69.8,69.8,100,30.00,10.0,North,9.2,-,N/A,,Mostly Cloudy,360,2013-12-29 10:19:00
12:56 AM,68.0,68.0,100,29.94,10.0,North,8.1,-,N/A,,Mostly Cloudy,350,2013-12-29 10:56:00
1:07 AM,68.0,68.0,100,30.00,10.0,NNW,10.4,-,N/A,,Mostly Cloudy,330,2013-12-29 11:07:00
1:14 AM,68.0,68.0,100,30.00,10.0,NNW,9.2,-,N/A,,Overcast,340,2013-12-29 11:14:00
1:21 AM,68.0,68.0,100,30.00,10.0,North,11.5,-,N/A,,Overcast,350,2013-12-29 11:21:00
1:38 AM,69.8,68.0,94,29.99,10.0,NNW,10.4,-,N/A,,Overcast,330,2013-12-29 11:38:00
1:56 AM,68.0,68.0,100,29.92,10.0,Variable,5.8,-,N/A,,Overcast,0,2013-12-29 11:56:00
2:56 AM,68.0,66.9,96,29.91,10.0,North,10.4,-,N/A,,Mostly Cloudy,350,2013-12-29 12:56:00
3:34 AM,68.0,66.2,94,29.97,10.0,NNE,10.4,-,N/A,,Overcast,20,2013-12-29 13:34:00
3:43 AM,68.0,66.2,94,29.97,10.0,North,8.1,-,N/A,,Overcast,360,2013-12-29 13:43:00
3:56 AM,68.9,66.9,93,29.91,10.0,North,8.1,-,N/A,,Mostly Cloudy,10,2013-12-29 13:56:00
4:56 AM,68.0,66.9,96,29.91,10.0,NNE,4.6,-,N/A,,Overcast,20,2013-12-29 14:56:00
5:56 AM,68.0,65.8,93,29.93,10.0,NE,11.5,-,N/A,,Scattered Clouds,50,2013-12-29 15:56:00
6:56 AM,68.0,64.9,90,29.95,10.0,NE,17.3,-,N/A,,Partly Cloudy,50,2013-12-29 16:56:00
7:56 AM,70.9,63.9,78,29.96,10.0,NE,20.7,25.3,N/A,,Clear,50,2013-12-29 17:56:00
8:56 AM,72.9,63.9,73,29.99,10.0,NE,20.7,26.5,N/A,,Clear,50,2013-12-29 18:56:00
9:56 AM,75.9,63.9,66,29.98,10.0,NE,24.2,28.8,N/A,,Clear,50,2013-12-29 19:56:00
10:56 AM,77.0,63.0,62,29.95,10.0,NE,25.3,-,N/A,,Clear,50,2013-12-29 20:56:00
11:56 AM,77.9,63.9,62,29.93,10.0,NE,26.5,29.9,N/A,,Clear,50,2013-12-29 21:56:00
12:56 PM,79.0,61.9,56,29.90,10.0,NE,23.0,-,N/A,,Clear,50,2013-12-29 22:56:00
1:56 PM,77.9,61.9,58,29.89,10.0,NE,20.7,29.9,N/A,,Clear,40,2013-12-29 23:56:00
2:56 PM,77.0,61.0,58,29.88,10.0,NE,21.9,29.9,N/A,,Clear,40,2013-12-30 00:56:00
3:56 PM,74.8,61.9,64,29.88,10.0,NE,23.0,33.4,N/A,,Clear,50,2013-12-30 01:56:00
4:56 PM,72.9,61.9,68,29.90,10.0,NE,26.5,32.2,N/A,,Clear,40,2013-12-30 02:56:00
5:56 PM,68.9,59.9,73,29.91,10.0,NE,21.9,34.5,N/A,,Clear,40,2013-12-30 03:56:00
6:56 PM,68.0,61.0,78,29.93,10.0,NE,18.4,28.8,N/A,,Clear,40,2013-12-30 04:56:00
7:56 PM,68.0,63.0,84,29.94,10.0,NE,23.0,31.1,N/A,,Clear,40,2013-12-30 05:56:00
8:56 PM,68.0,61.9,81,29.95,10.0,NE,21.9,34.5,N/A,,Clear,40,2013-12-30 06:56:00
9:56 PM,68.0,61.9,81,29.96,10.0,NE,20.7,29.9,N/A,,Clear,40,2013-12-30 07:56:00
10:56 PM,66.9,61.0,81,29.96,10.0,NE,20.7,-,N/A,,Clear,40,2013-12-30 08:56:00
11:56 PM,68.0,63.0,84,29.96,10.0,NE,21.9,26.5,N/A,,Clear,40,2013-12-30 09:56:00